Regional Weather Roundup
Issued by NWS State College, PA

Home | Current Version | Previous Version | Text Only | Print | Product List | Glossary On
Versions: 1 2 3 4 5 6 7 8 9 10 11 12 13 14 15 16 17 18 19 20 21 22 23 24 25 26 27 28 29 30 31 32 33 34 35 36 37 38 39 40 41 42 43 44 45 46 47 48 49 50
000
ASUS41 KCTP 291410
RWRCTP

REGIONAL WEATHER ROUNDUP
NATIONAL WEATHER SERVICE STATE COLLEGE PA
1000 AM EDT SAT AUG 29 2015

Note: "fair" indicates few or no clouds below 12,000 feet with no
significant weather and/or obstructions to visibility.

* = STATION THAT DOES NOT REPORT PRECIPITATION /E.G. RAIN...SNOW...ETC/
    THUNDER OR FOG.

PAZ002>004-007>009-013>016-020>023-029>032-291500-
WESTERN PENNSYLVANIA

CITY           SKY/WX    TMP DP  RH WIND       PRES   REMARKS
ERIE           CLOUDY    69  57  65 S5        30.17S
MEADVILLE      PTSUNNY   68  55  63 S8        30.20S
FRANKLIN*      PTSUNNY   68  57  68 SW3       30.22S
NEW CASTLE     FAIR      65  60  83 CALM      30.21S
BEAVER COUNTY  SUNNY     68  59  73 CALM      30.20S
BUTLER*        MOSUNNY   70  57  64 CALM      30.22S
PITTSBURGH INT PTSUNNY   68  56  65 CALM      30.20S
PITTSBURGH     SUNNY     68  54  60 CALM      30.20S
INDIANA*       SUNNY     70  59  68 SW5       30.25R
LATROBE        MOSUNNY   68  59  73 CALM      30.23R
WASHINGTON CO* SUNNY     70  57  64 S5        30.22R
$$

PAZ004>006-010>012-017>019-024>028-033>037-041-042-045-046-049>053-291500-
CENTRAL PENNSYLVANIA

CITY           SKY/WX    TMP DP  RH WIND       PRES   REMARKS
BRADFORD       SUNNY     67  56  67 VRB5      30.23S
DUBOIS         SUNNY     69  56  62 SW6       30.22S
CLEARFIELD     SUNNY     64  57  78 S3        30.23S
JOHNSTOWN      SUNNY     67  58  72 SW6       30.25R
ALTOONA        MOSUNNY   69  58  67 CALM      30.23F
STATE COLLEGE  MOSUNNY   59  57  94 CALM      30.23S FOG
WILLIAMSPORT   MOSUNNY   65  56  72 SE3       30.20F
SELINSGROVE    MOSUNNY   67  59  75 CALM      30.21F
FT INDIANTOWN  LGT RAIN  70  60  71 E3        30.22S
CAPITAL CITY   MOSUNNY   71  60  68 CALM      30.21S
HARRISBURG     PTSUNNY   72  60  66 SE3       30.20F
YORK           MOSUNNY   73  62  68 CALM      30.21S
$$

PAZ038>040-043-044-047-048-054-055-060>062-067>071-291500-
EASTERN PENNSYLVANIA

CITY           SKY/WX    TMP DP  RH WIND       PRES   REMARKS
SCRANTON       SUNNY     69  55  60 CALM      30.22F
MOUNT POCONO   SUNNY     69  58  67 W8        30.26S
ALLENTOWN      SUNNY     70  59  68 CALM      30.23S
QUAKERTOWN*    SUNNY     73  59  60 CALM      30.24S
READING        MOSUNNY   70  59  68 CALM      30.22S
LANCASTER      SUNNY     72  61  68 E3        30.22S
COATESVILLE    PTSUNNY   72  63  73 SW3       30.24S
POTTSTOWN      MOSUNNY   71  62  73 CALM      30.24S
BLUE BELL      SUNNY     77  63  61 SW3       30.23R
DOYLESTOWN     SUNNY     72  59  63 VRB3      30.23R
WILLOW GROVE   NOT AVBL
NORTH PHILA    SUNNY     79  58  48 W5        30.24S
PHILADELPHIA   MOSUNNY   77  59  53 W7        30.23S
$$



USA.gov is the U.S. government's official web portal to all federal, state and local government web resources and services.